STARLINK-1910 (46748 NORAD) Tracking and Keplerian Element Data

This shows tracking and keplerian element data for the satellite.

Feedback or suggestion? Click here.




ElementValue
Catalog46748
NameSTARLINK-1910
Epoch Orbit181
Epoch Day330.91667824
Epoch Year2020
RAAN1.9878
Inclination53.0547
Eccentricity0.0001248
Argument of Perigee77.2332
Mean Anonmoly170.4789
Mean Motion15.62806878
Decay Rate-0.00035034
L11 46748U 20074K 20330.91667824 -.00035034 00000-0 -37764-3 0 9990
L22 46748 53.0547 1.9878 0001248 77.2332 170.4789 15.62806878 1814

Live tracking and technical data element details for STARLINK-1910 (NORAD 46748). STARLINK-1910 can be tracked NOW for your location showing map with azimuth and elevation plus other details from your city location.

Track the satellite on the map from your city or location and see movement details for azimuth, elevation, latitude, longitude, range, height, and movement on the map or in text.







IsCatalogInMostPopularTable: catalog: 46748, numindb: 7
Update: records affected: 1



GetName: 46748 STARLINK-1910

Hit Count: updated at: Thu, 26 Nov 2020 20:49:02 GMT